User: anonymous   Login
Location: Cherry Road
(34.5193°N, 112.0852°W)
Time: 21:12:41
(UTC-07:00)
Language:

Hubble Space Telescope - Orbit

View from above orbital plane
View from above orbital plane
View from above satellite
View from above satellite

Ground track
Ground track

The orbit data is extracted from the following two-line orbital elements,

1 20580U 90037B   17344.30064486 +.00000517 +00000-0 +20807-4 0  9998
2 20580 028.4700 283.6617 0002469 266.7076 225.7586 15.08941159316824
Epoch (UTC): 10 December 2017 07:12:55
Eccentricity: 0.0002469
inclination: 28.4700°
perigee height: 538 km
apogee height: 541 km
right ascension of ascending node: 283.6617°
argument of perigee: 266.7076°
revolutions per day: 15.08941159
mean anomaly at epoch: 225.7586°
orbit number at epoch: 31682

The dashed part of the orbit path shows where the satellite is in the earth's shadow,  

DLR